カタログに戻る

NOAA 17 DEB

運用中SSO
NORAD 48162·DEBRIS·🇺🇸 United States

打ち上げ Jun 24, 2002 から Vandenberg Space Force Base

Loading…

次のパス (今後24時間)

TLE

最新Source: Space-Track

元期: Sep 14, 2026, 09:28 UTC

1 48162U 02032C   26257.39470785  .00002771  00000-0  85183-3 0  9998
2 48162  98.7998 236.2348 0018832  43.9741 316.2942 14.42289901287768

AllMySatでNOAA 17 DEBをリアルタイム追跡

Download on the App Store